Simultaneous Nadir Overpasses (SNOs) Predictions

Prediction of SNOs between GOES-14 and NOAA-20 Satellite Orbit:

Table of predicted SNOs for the next 14.0 days since TLE Epoch: 8/14/2021
Index Date Time (GOES-14) GOES-14 Lat,Lon NOAA-20 Lat,Lon Distance(km) Time Diff (sec)
1 08/15/2021 08:33:20 -0.41,-104.20 0.16,-106.85 301.41 80
2 08/16/2021 08:11:55 -0.40,-104.19 -0.81,-102.31 214.75 80
3 08/17/2021 20:33:52 0.43,-104.38 -0.31,-107.62 370.48 80
4 08/18/2021 20:17:47 0.42,-104.38 0.72,-103.10 146.81 80
5 08/20/2021 08:39:35 -0.45,-104.22 0.48,-108.36 472.53 80
6 08/21/2021 08:18:10 -0.44,-104.21 -0.55,-103.84 43.67 80
7 08/23/2021 20:21:22 0.45,-104.39 0.40,-104.62 25.46 80
8 08/24/2021 20:05:18 0.44,-104.40 1.44,-100.09 492.52 80
9 08/26/2021 08:27:05 -0.47,-104.26 -0.24,-105.36 124.64 80
10 08/27/2021 08:05:40 -0.45,-104.26 -1.21,-100.81 391.92 80
